Regional Weather Roundup
Issued by NWS Bismarck, ND

Home | Current Version | Previous Version | Text Only | Print | Product List | Glossary On
Versions: 1 2 3 4 5 6 7 8 9 10 11 12 13 14 15 16 17 18 19 20 21 22 23 24 25 26 27 28 29 30 31 32 33 34 35 36 37 38 39 40 41 42 43 44 45 46 47 48 49 50
216
ASUS43 KBIS 290902
RWRBIS

NWR BROADCAST TEXT
NATIONAL WEATHER SERVICE BISMARCK ND
400 AM CDT WED MAR 29 2017

NOTE: "FAIR" INDICATES FEW OR NO CLOUDS BELOW 12,000 FEET WITH NO
SIGNIFICANT WEATHER AND/OR OBSTRUCTIONS TO VISIBILITY.


CITY           SKY/WX    TMP DP  RH WIND       PRES   REMARKS
WILLISTON      FOG       33  33 100 CALM      30.07F VSB<1/4
MINOT          CLOUDY    43  39  86 SW5       30.07F
MINOT AFB      CLOUDY    37  37  99 S8        30.06S
BISMARCK       MOCLDY    41  37  86 SE5       30.15R
DICKINSON      MOCLDY    36  35  96 S8        30.08R
GARRISON         N/A     38  36  92 S5        30.09S
HETTINGER ARPT MOCLDY    38  37  97 SE5       30.12S FOG
JAMESTOWN      FAIR      36  36 100 CALM      30.16S FOG
HAZEN          FAIR      37  36  93 CALM      30.13R
LINTON           N/A     36  36 100 E6        30.17S
MANDAN         CLOUDY    41  41 100 SW8       30.15R
STANLEY        FOG       36  36 100 CALM      30.09S VSB 1/4
TIOGA          FOG       34  34 100 CALM      30.08S VSB<1/4
WATFORD CITY   FAIR      34  34 100 SW3       30.07F FOG
$$

CITY           SKY/WX    TMP DP  RH WIND       PRES   REMARKS
GRAND FORKS    FAIR      33  32  96 CALM      30.18S
GRAND FORKS AF FAIR      30  30 100 CALM      30.18S
DEVILS LAKE    FOG       33  32  96 SE7       30.16S VSB 1/2
FARGO          FAIR      37  32  82 CALM      30.18R
CAVALIER       FAIR      30  30 100 CALM      30.17F FOG
GRAFTON        FAIR      32  32 100 CALM      30.20S
GWINNER        SUNNY     41  39  93 MISG      30.17F
LANGDON        FAIR      36  34  93 SE13      30.15F
ROLLA          CLOUDY    36  36 100 S9        30.12F FOG
$$

CITY           SKY/WX    TMP DP  RH WIND       PRES   REMARKS
ABERDEEN       FAIR      38  32  79 NE3       30.16F
MOBRIDGE       CLOUDY    44  39  82 CALM      30.13S
BUFFALO          N/A     42  41  96 S7        30.04S
RAPID CITY     CLOUDY    41  40  96 SE3       30.10F
GLASGOW        FAIR      41  32  70 S5        30.01F
SIDNEY         FOG       32  32 100 S5        30.08R VSB 1/4
WOLF POINT     FAIR      37  34  89 NE6       30.04F
GLENDIVE       FAIR      36  34  92 S6        30.08S
MILES CITY     FAIR      36  33  89 SE9       30.07F
BAKER          MOCLDY    34  32  92 SE5       30.09S
$$

CITY           SKY/WX    TMP DP  RH WIND       PRES   REMARKS
BILLINGS       FAIR      41  29  62 SW8       30.08R
GREAT FALLS    FAIR      40  25  55 SW13      30.05S
$$





USA.gov is the U.S. government's official web portal to all federal, state and local government web resources and services.